• In Moldova, Republic
  • List of Countries
  • For 7 days
  • Water Temperature
  • Satellite Maps
  • Weather Map
  • Weather Widgets
  • user-avatar
    Login

    Hourly Weather Sydney

    Today, 22 May, Wednesday

    Time Temperature Precipitation Wind Pressure Humidity
    00:00 +19°C° 0 mm 2 mps 768 mmHg 66%
    01:00 +18°C° 0 mm 2 mps 768 mmHg 67%
    02:00 +18°C° 0 mm 2 mps 768 mmHg 68%
    03:00 +18°C° 0 mm 2 mps 768 mmHg 69%
    04:00 +17°C° 0 mm 2 mps 768 mmHg 70%
    05:00 +17°C° 0 mm 2 mps 768 mmHg 70%
    06:00 +17°C° 0 mm 2 mps 769 mmHg 71%
    07:00 +16°C° 0 mm 1 mps 769 mmHg 72%
    08:00 +18°C° 0 mm 2 mps 769 mmHg 65%
    09:00 +20°C° 0 mm 2 mps 769 mmHg 58%
    10:00 +24°C° 0 mm 1 mps 769 mmHg 49%
    11:00 +25°C° 0 mm 2 mps 769 mmHg 49%
    12:00 +25°C° 0 mm 2 mps 769 mmHg 48%
    13:00 +26°C° 0 mm 3 mps 768 mmHg 47%
    14:00 +25°C° 0 mm 3 mps 768 mmHg 54%
    15:00 +23°C° 0 mm 4 mps 768 mmHg 60%
    16:00 +22°C° 0 mm 3 mps 768 mmHg 65%
    17:00 +22°C° 0.3 mm 3 mps 768 mmHg 69%
    18:00 +21°C° 0.3 mm 3 mps 769 mmHg 73%
    19:00 +20°C° 0.3 mm 3 mps 769 mmHg 77%
    20:00 +20°C° 0.3 mm 3 mps 769 mmHg 78%
    21:00 +20°C° 0.3 mm 3 mps 769 mmHg 80%
    22:00 +19°C° 0 mm 2 mps 769 mmHg 84%
    23:00 +19°C° 0.5 mm 2 mps 769 mmHg 86%

    Tomorrow, 23 May, Thursday

    Time Temperature Precipitation Wind Pressure Humidity
    00:00 +18°C° 0.5 mm 2 mps 769 mmHg 88%
    01:00 +18°C° 0.5 mm 2 mps 769 mmHg 90%
    02:00 +17°C° 0.2 mm 2 mps 769 mmHg 91%
    03:00 +17°C° 0.2 mm 2 mps 769 mmHg 92%
    04:00 +17°C° 0.2 mm 2 mps 769 mmHg 93%
    05:00 +17°C° 0.3 mm 2 mps 769 mmHg 93%
    06:00 +17°C° 0.3 mm 3 mps 769 mmHg 94%
    07:00 +17°C° 0.3 mm 3 mps 769 mmHg 95%
    08:00 +18°C° 0.3 mm 2 mps 769 mmHg 90%
    09:00 +19°C° 0.3 mm 2 mps 769 mmHg 86%
    10:00 +20°C° 0.3 mm 2 mps 769 mmHg 81%
    11:00 +21°C° 0.1 mm 2 mps 769 mmHg 74%
    12:00 +23°C° 0.1 mm 2 mps 768 mmHg 67%
    13:00 +24°C° 0.1 mm 2 mps 768 mmHg 60%
    14:00 +24°C° 0 mm 2 mps 768 mmHg 62%
    15:00 +24°C° 0 mm 2 mps 767 mmHg 63%
    16:00 +23°C° 0 mm 2 mps 767 mmHg 65%
    17:00 +21°C° 0.1 mm 2 mps 767 mmHg 70%
    18:00 +21°C° 0.1 mm 1 mps 767 mmHg 76%
    19:00 +20°C° 0.1 mm 1 mps 767 mmHg 82%
    20:00 +20°C° 0.1 mm 1 mps 767 mmHg 84%
    21:00 +19°C° 0.1 mm 1 mps 768 mmHg 86%
    22:00 +19°C° 0.1 mm 1 mps 768 mmHg 88%
    23:00 +18°C° 0.1 mm 1 mps 767 mmHg 89%

    Day after tomorrow, 24 May, Friday

    Time Temperature Precipitation Wind Pressure Humidity
    00:00 +17°C° 0.1 mm 2 mps 767 mmHg 90%
    01:00 +17°C° 0.1 mm 2 mps 767 mmHg 91%
    02:00 +16°C° 0 mm 2 mps 767 mmHg 91%
    03:00 +16°C° 0 mm 2 mps 766 mmHg 90%
    04:00 +15°C° 0 mm 2 mps 766 mmHg 90%
    05:00 +15°C° 0 mm 2 mps 766 mmHg 87%
    06:00 +15°C° 0 mm 2 mps 766 mmHg 84%
    07:00 +14°C° 0 mm 2 mps 766 mmHg 82%
    08:00 +16°C° 0 mm 2 mps 766 mmHg 72%
    09:00 +17°C° 0 mm 2 mps 766 mmHg 62%
    10:00 +19°C° 0 mm 2 mps 766 mmHg 52%
    11:00 +21°C° 0 mm 2 mps 766 mmHg 44%
    12:00 +24°C° 0 mm 2 mps 765 mmHg 37%
    13:00 +26°C° 0 mm 1 mps 764 mmHg 29%
    14:00 +25°C° 0 mm 2 mps 764 mmHg 30%
    15:00 +25°C° 0 mm 2 mps 764 mmHg 32%
    16:00 +24°C° 0 mm 2 mps 763 mmHg 33%
    17:00 +23°C° 0 mm 2 mps 764 mmHg 37%
    18:00 +21°C° 0 mm 2 mps 764 mmHg 41%
    19:00 +20°C° 0 mm 3 mps 764 mmHg 45%
    20:00 +19°C° 0 mm 2 mps 765 mmHg 45%
    21:00 +19°C° 0 mm 2 mps 765 mmHg 45%
    22:00 +18°C° 0 mm 2 mps 765 mmHg 45%
    23:00 +18°C° 0 mm 2 mps 764 mmHg 48%

    25 May, Saturday

    Time Temperature Precipitation Wind Pressure Humidity
    00:00 +18°C° 0 mm 2 mps 764 mmHg 51%
    01:00 +17°C° 0 mm 2 mps 764 mmHg 54%
    02:00 +17°C° 0 mm 2 mps 764 mmHg 56%
    03:00 +17°C° 0 mm 2 mps 763 mmHg 58%
    04:00 +16°C° 0 mm 2 mps 763 mmHg 60%
    05:00 +16°C° 0 mm 2 mps 763 mmHg 61%
    06:00 +16°C° 0 mm 2 mps 763 mmHg 62%
    07:00 +16°C° 0 mm 2 mps 764 mmHg 63%
    08:00 +18°C° 0 mm 2 mps 764 mmHg 57%
    09:00 +20°C° 0 mm 2 mps 764 mmHg 50%
    10:00 +23°C° 0 mm 2 mps 764 mmHg 44%
    11:00 +25°C° 0 mm 2 mps 763 mmHg 40%
    12:00 +26°C° 0 mm 1 mps 762 mmHg 37%
    13:00 +28°C° 0 mm 1 mps 761 mmHg 33%
    14:00 +27°C° 0 mm 2 mps 761 mmHg 36%
    15:00 +26°C° 0 mm 2 mps 761 mmHg 40%
    16:00 +25°C° 0 mm 3 mps 761 mmHg 43%
    17:00 +24°C° 0 mm 3 mps 761 mmHg 45%
    18:00 +22°C° 0 mm 4 mps 761 mmHg 47%
    19:00 +22°C° 0 mm 4 mps 761 mmHg 49%
    20:00 +21°C° 0 mm 3 mps 761 mmHg 49%
    21:00 +20°C° 0 mm 3 mps 761 mmHg 48%
    22:00 +19°C° 0 mm 3 mps 761 mmHg 48%
    23:00 +19°C° 0 mm 3 mps 761 mmHg 48%

    26 May, Sunday

    Time Temperature Precipitation Wind Pressure Humidity
    00:00 +19°C° 0 mm 4 mps 761 mmHg 48%
    01:00 +18°C° 0 mm 4 mps 760 mmHg 49%
    02:00 +18°C° 0 mm 4 mps 760 mmHg 48%
    03:00 +17°C° 0 mm 5 mps 759 mmHg 48%
    04:00 +17°C° 0 mm 5 mps 759 mmHg 48%
    05:00 +17°C° 0 mm 5 mps 759 mmHg 49%
    06:00 +16°C° 0 mm 5 mps 759 mmHg 49%
    07:00 +17°C° 0 mm 4 mps 759 mmHg 49%
    08:00 +18°C° 0.1 mm 4 mps 759 mmHg 48%
    09:00 +20°C° 0.1 mm 4 mps 760 mmHg 46%
    10:00 +21°C° 0.1 mm 4 mps 760 mmHg 44%
    11:00 +20°C° 0.4 mm 5 mps 759 mmHg 49%
    12:00 +20°C° 0.4 mm 5 mps 759 mmHg 55%
    13:00 +19°C° 0.4 mm 5 mps 758 mmHg 60%
    14:00 +20°C° 0 mm 5 mps 758 mmHg 54%
    15:00 +20°C° 0 mm 5 mps 758 mmHg 48%
    16:00 +21°C° 0 mm 5 mps 758 mmHg 42%
    17:00 +20°C° 0 mm 5 mps 758 mmHg 45%
    18:00 +17°C° 0 mm 5 mps 759 mmHg 47%
    19:00 +16°C° 0 mm 5 mps 760 mmHg 49%
    20:00 +15°C° 0 mm 5 mps 760 mmHg 50%
    21:00 +15°C° 0 mm 5 mps 760 mmHg 52%
    22:00 +14°C° 0 mm 6 mps 761 mmHg 53%
    23:00 +14°C° 0 mm 5 mps 761 mmHg 54%

    27 May, Monday

    Time Temperature Precipitation Wind Pressure Humidity
    00:00 +13°C° 0 mm 5 mps 760 mmHg 55%
    01:00 +13°C° 0 mm 5 mps 760 mmHg 56%
    02:00 +12°C° 0 mm 4 mps 760 mmHg 56%
    03:00 +12°C° 0 mm 4 mps 760 mmHg 55%
    04:00 +12°C° 0 mm 4 mps 760 mmHg 55%
    05:00 +12°C° 0 mm 4 mps 760 mmHg 58%
    06:00 +11°C° 0 mm 4 mps 761 mmHg 60%
    07:00 +11°C° 0 mm 4 mps 761 mmHg 62%
    08:00 +12°C° 0 mm 4 mps 761 mmHg 57%
    09:00 +14°C° 0 mm 4 mps 762 mmHg 53%
    10:00 +15°C° 0 mm 4 mps 762 mmHg 48%
    11:00 +17°C° 0 mm 5 mps 761 mmHg 44%
    12:00 +19°C° 0 mm 5 mps 760 mmHg 40%
    13:00 +20°C° 0 mm 5 mps 760 mmHg 36%
    14:00 +20°C° 0 mm 5 mps 759 mmHg 37%
    15:00 +19°C° 0 mm 5 mps 759 mmHg 38%
    16:00 +19°C° 0 mm 6 mps 759 mmHg 39%
    17:00 +17°C° 0 mm 5 mps 760 mmHg 43%
    18:00 +16°C° 0 mm 5 mps 760 mmHg 47%
    19:00 +15°C° 0 mm 5 mps 760 mmHg 51%
    20:00 +14°C° 0 mm 5 mps 760 mmHg 53%
    21:00 +13°C° 0 mm 4 mps 761 mmHg 56%
    22:00 +13°C° 0 mm 4 mps 761 mmHg 58%
    23:00 +12°C° 0 mm 4 mps 760 mmHg 59%
    Show more